Location: Unspecified
(0.0000°N, 0.0000°E)
Time: 15:26:32
(UTC+00:00)

ITAMSAT 1 - Visible Passes

Search period start: 19 October 2020 00:00
Search period end: 29 October 2020 00:00
Orbit: 784 x 797 km, 98.9° (Epoch: 18 October)

Date Brightness Start Highest point End Pass type
(mag) Time Alt. Az. Time Alt. Az. Time Alt. Az.
19 Oct 11.1 04:51:37 10° ENE 04:54:00 13° ESE 04:56:24 10° SE visible
19 Oct 10.9 19:05:28 10° SW 19:08:06 14° WSW 19:10:42 10° WNW visible
20 Oct 9.6 18:34:10 10° SSW 18:38:45 32° WSW 18:43:18 10° NW visible
21 Oct 8.0 18:04:13 10° S 18:09:22 75° WSW 18:14:31 10° NNW visible
22 Oct 10.9 05:01:34 10° ENE 05:05:03 18° ESE 05:08:31 10° SE visible
23 Oct 10.2 18:45:41 10° SSW 18:49:47 24° WSW 18:53:53 10° NW visible
24 Oct 8.5 18:15:22 10° S 18:20:25 55° WSW 18:25:27 10° NNW visible
25 Oct 10.5 05:11:56 10° NE 05:16:05 24° ESE 05:20:14 10° SSE visible
26 Oct 10.6 18:57:23 10° SW 19:00:48 18° WSW 19:04:14 10° WNW visible
27 Oct 9.2 18:26:37 10° S 18:31:27 41° WSW 18:36:16 10° NNW visible
